Flag for U.S.A. Weather past 2 weeks in Vincennes, Indiana, U.S.A.

Now
57 °F

Overcast.


Feels Like: 57 °F
Forecast: 55 / 74 °F
Wind: 5 mph from Northeast

Location: Lawrenceville-Vincennes International Airport

Current Time: Jun 2, 2015 at 6:03:22 AM

Latest Report: Jun 2, 2015 at 4:53 AM


Visibility: 10 mi

Pressure: 30.12 "Hg

Humidity: 83%

Dew point: 52 °F

Location of VincennesLocation

Historic Weather in Vincennes — Graph

°F

Vincennes temperature yesterday

Maximum temperature yesterday: 62 °F (at 5:53 PM)
Minimum temperature yesterday: 57 °F (at 5:53 AM)
Average temperature yesterday: 59 °F

Past Weeks' High & Low Weather Summary

 TemperatureHumidityPressure
High87 °F (May 30, 1:53 PM)97% (May 18, 7:53 AM)30.36 "Hg (May 18, 7:53 AM)
Low47 °F (May 21, 4:53 AM)32% (May 23, 4:53 PM)29.87 "Hg (May 30, 5:53 PM)
Average67 °F72%30.10 "Hg
* Reported May 18 4:53 AM — Jun 2 4:53 AM, Vincennes, Weather by CustomWeather, © 2015

Note: Actual official high and low records may vary slightly from our data, if they occured in-between our weather recording intervals... More about our weather records

Advertising

Vincennes weather history for previous 24 hours

 ConditionsComfort  
Time TempWeatherWind HumidityBarometerVisibility
4:53 AM
Tue, Jun 2
57 °FOvercast.5 mph83%30.12 "Hg10 mi
3:53 AM58 °FOvercast.8 mph81%30.11 "Hg10 mi
2:53 AM58 °FOvercast.7 mph81%30.12 "Hg10 mi
1:53 AM59 °FOvercast.8 mph78%30.12 "Hg10 mi
12:53 AM59 °FOvercast.10 mph78%30.14 "Hg10 mi
10:53 PM
Mon, Jun 1
59 °FPartly cloudy.6 mph84%30.14 "Hg10 mi
9:53 PM61 °FOvercast.8 mph78%30.13 "Hg10 mi
8:53 PM61 °FOvercast.8 mph75%30.12 "Hg10 mi
7:53 PM61 °FOvercast.8 mph78%30.13 "Hg10 mi
6:53 PM61 °FOvercast.8 mph75%30.11 "Hg10 mi
5:53 PM62 °FOvercast.7 mph73%30.12 "Hg10 mi
4:53 PM61 °FOvercast.8 mph72%30.12 "Hg10 mi
3:53 PM61 °FOvercast.9 mph72%30.14 "Hg10 mi
2:53 PM60 °FMostly cloudy.6 mph72%30.14 "Hg8 mi
1:53 PM59 °FOvercast.9 mph75%30.14 "Hg10 mi
12:53 PM60 °FOvercast.12 mph75%30.15 "Hg10 mi
11:53 AM58 °FMostly cloudy.9 mph75%30.15 "Hg10 mi
10:53 AM58 °FOvercast.8 mph78%30.15 "Hg10 mi
9:53 AM57 °FOvercast.8 mph81%30.15 "Hg10 mi
8:53 AM57 °FMostly cloudy.14 mph83%30.14 "Hg10 mi
7:53 AM57 °FMostly cloudy.9 mph83%30.14 "Hg10 mi
6:53 AM57 °FOvercast.8 mph83%30.13 "Hg10 mi
Weather by CustomWeather, © 2015

See weather overviewHow to use our weather pages